Date,TemperatureHighF,TemperatureAvgF,TemperatureLowF,DewpointHighF,DewpointAvgF,DewpointLowF,HumidityHigh,HumidityAvg,HumidityLow,PressureMaxIn,PressureMinIn,WindSpeedMaxMPH,WindSpeedAvgMPH,GustSpeedMaxMPH,PrecipitationSumIn
2013-1-1,52,47,44,47,44,41,99,89,68,30.18,30.10,8,3,13,0.08
2013-1-2,50,47,45,50,45,43,99,94,84,30.11,30.06,13,5,22,0.04
2013-1-3,56,52,49,44,42,39,75,69,59,30.50,30.28,8,3,12,0.00
2013-1-4,52,50,46,42,40,37,80,69,60,30.49,30.29,11,4,19,0.00
2013-1-5,49,45,42,43,39,37,92,82,64,30.29,30.14,11,5,23,0.00
2013-1-6,56,52,48,49,42,35,99,69,52,30.24,30.13,6,2,11,0.00
2013-1-7,58,51,44,47,43,36,99,75,51,30.25,30.06,8,3,13,0.00
2013-1-8,53,49,47,47,43,35,94,80,50,30.30,30.22,7,2,11,0.00
2013-1-9,47,46,45,43,41,40,89,84,80,30.22,30.17,3,1,6,0.00
2013-1-10,49,47,46,48,44,40,99,87,73,30.13,29.85,10,4,20,0.17
2013-1-11,51,46,41,48,44,40,99,92,74,29.88,29.73,13,3,30,0.15
2013-1-12,46,43,41,41,39,36,99,86,74,29.99,29.85,9,4,16,0.00
2013-1-13,50,47,44,50,46,43,99,98,90,30.04,29.80,17,7,34,1.87
2013-1-14,49,47,44,48,46,40,99,97,85,29.93,29.76,15,6,30,1.87
2013-1-15,50,44,41,43,40,35,99,84,65,29.94,29.75,10,4,17,0.06
2013-1-16,44,39,34,42,37,34,99,94,76,29.60,29.46,16,6,28,1.34
2013-1-17,44,39,33,42,38,33,99,96,79,29.47,29.33,13,4,24,0.55
2013-1-18,41,36,33,34,33,32,99,92,75,29.53,29.35,20,11,34,0.06
2013-1-19,50,42,35,50,38,27,99,87,59,29.65,29.52,25,8,39,0.43
2013-1-20,53,51,47,53,51,47,99,99,99,29.58,29.49,17,10,33,1.34
2013-1-21,49,47,42,48,46,42,99,98,93,29.49,29.42,12,4,20,0.40
2013-1-22,46,44,43,38,36,34,78,73,69,29.82,29.71,5,2,8,0.15
2013-1-23,45,43,40,44,41,36,99,94,78,29.83,29.71,16,6,32,0.76
2013-1-24,48,43,38,45,41,37,99,94,84,29.56,29.41,11,4,24,0.17
2013-1-25,49,42,37,40,37,32,99,84,62,29.59,29.43,10,4,17,0.00
2013-1-26,47,43,38,38,34,30,86,71,60,29.85,29.62,7,2,11,0.00
2013-1-27,48,42,38,41,37,28,86,80,65,29.99,29.84,9,2,13,0.00
2013-1-28,43,42,39,42,36,29,99,80,61,29.98,29.87,14,6,27,0.11
2013-1-29,52,48,42,46,42,36,99,79,66,30.24,30.04,11,2,16,0.02
2013-1-30,55,49,45,50,45,39,99,86,63,30.24,30.18,6,2,9,0.00
2013-1-31,67,52,48,53,49,8,99,90,10,30.22,30.13,12,3,21,0.00
2013-2-1,57,51,48,52,50,45,99,94,80,30.18,29.78,14,5,24,0.00
2013-2-2,54,50,43,53,48,39,99,96,78,29.78,29.32,19,10,34,0.09
2013-2-3,47,43,39,42,37,31,99,82,66,29.95,29.38,15,5,28,0.28
2013-2-4,48,42,38,32,28,16,74,59,29,30.13,29.95,10,2,15,0.00
2013-2-5,45,45,45,33,29,28,64,54,50,30.12,30.11,4,2,7,0.00
2013-2-7,40,39,38,40,39,38,99,99,99,29.48,29.47,10,7,16,0.34
2013-2-8,47,40,35,34,31,28,88,70,54,29.73,29.56,14,4,18,0.00
2013-2-9,43,37,33,33,27,22,89,67,47,29.85,29.72,12,4,20,0.00
2013-2-10,42,37,33,26,21,12,70,53,31,29.90,29.83,9,2,14,0.00
2013-2-11,48,40,35,47,34,15,99,79,41,29.94,29.54,24,11,38,1.27
2013-2-12,48,43,40,44,42,40,99,94,80,29.69,29.57,8,3,14,0.36
2013-2-13,48,42,37,42,36,33,99,80,62,29.80,29.66,11,4,15,0.00
2013-2-14,51,45,41,39,36,34,84,72,52,29.98,29.81,9,3,13,0.00
2013-2-15,51,44,40,38,36,32,82,72,58,29.99,29.94,8,2,12,0.00
2013-2-16,53,46,42,42,38,35,89,73,52,30.05,29.97,8,2,12,0.00
2013-2-17,50,44,40,42,40,36,95,85,72,30.06,29.97,10,4,17,0.06
2013-2-18,46,43,40,41,38,34,94,83,73,29.99,29.94,6,2,9,0.00
2013-2-19,50,43,39,37,33,29,84,69,45,29.99,29.93,7,2,10,0.00
2013-2-20,50,44,40,38,35,32,84,72,57,29.99,29.90,10,2,14,0.00
2013-2-21,51,45,41,44,38,34,95,76,52,29.91,29.69,8,2,14,0.04
2013-2-22,50,46,44,50,45,43,99,98,91,29.69,29.47,16,5,25,0.40
2013-2-23,53,44,41,51,43,36,99,95,78,29.60,29.09,24,8,40,1.89
2013-2-24,43,40,36,41,35,30,98,83,64,29.93,29.65,14,5,22,0.06
2013-2-25,40,36,34,38,35,32,99,95,78,30.02,29.91,11,4,19,1.32
2013-2-26,44,41,40,38,36,35,90,83,74,30.06,30.00,5,1,9,0.02
2013-2-27,52,47,43,39,35,32,76,63,50,30.19,30.12,11,4,16,0.00
2013-2-28,54,47,42,42,37,30,84,67,57,30.22,30.13,11,3,14,0.00
2013-3-1,53,50,39,40,36,21,71,59,48,30.13,29.87,6,2,11,0.60
2013-3-2,56,52,48,47,39,34,94,63,48,30.00,29.79,11,2,18,0.00
2013-3-3,55,50,36,48,46,34,99,87,66,30.07,30.00,7,2,12,0.00
2013-3-4,55,49,44,47,44,42,99,85,64,30.19,30.06,10,3,15,0.00
2013-3-5,54,50,44,43,37,25,96,62,32,30.19,29.94,15,6,32,0.04
2013-3-6,58,53,50,57,46,30,99,84,38,29.94,29.73,19,10,35,2.95
2013-3-7,55,52,48,55,52,47,99,99,99,29.83,29.73,11,5,19,0.47
2013-3-8,54,51,49,53,51,49,99,99,99,29.81,29.71,15,7,24,0.47
2013-3-9,59,54,50,55,50,46,99,89,64,29.83,29.72,13,4,24,0.06
2013-3-10,57,52,48,55,50,48,99,95,76,29.75,29.64,12,4,20,0.68
2013-3-11,55,50,43,52,49,43,99,97,79,29.66,29.59,15,5,25,0.42
2013-3-12,51,47,44,50,46,43,99,98,92,29.63,29.58,12,3,20,0.87
2013-3-13,49,45,43,48,44,42,99,98,91,29.56,29.30,8,3,17,0.79
2013-3-14,51,44,39,46,40,34,99,86,64,29.31,29.15,18,6,28,0.00
2013-3-15,49,41,37,40,33,28,97,75,46,29.85,29.31,11,3,19,0.00
2013-3-16,45,40,36,38,34,30,99,81,65,30.11,29.86,8,3,14,0.00
2013-3-17,46,43,39,45,38,33,99,80,66,30.10,29.78,24,9,43,0.25
2013-3-18,51,48,45,51,48,45,99,99,94,29.78,29.62,22,14,38,0.77
2013-3-19,53,48,45,47,45,43,99,88,70,29.84,29.71,13,5,22,0.02
2013-3-20,52,48,44,47,42,35,99,83,57,29.83,29.68,14,7,24,0.51
2013-3-21,55,48,42,48,42,36,99,80,49,29.98,29.69,19,7,31,0.02
2013-3-22,59,51,46,49,40,30,99,69,35,29.97,29.89,10,2,14,0.00
2013-3-23,58,51,45,51,46,29,99,83,38,29.95,29.80,11,4,17,0.00
2013-3-24,66,58,53,49,38,17,80,50,21,29.80,29.47,17,8,32,0.00
2013-3-25,55,49,43,53,48,42,99,97,80,29.55,29.34,17,4,32,1.34
2013-3-26,50,47,43,48,44,39,99,92,81,29.59,29.55,6,2,10,0.45
2013-3-27,57,50,46,51,47,45,99,92,68,29.84,29.61,10,3,14,0.00
2013-3-28,52,50,47,51,49,45,99,96,86,29.91,29.81,13,4,22,0.21
2013-3-29,58,54,51,57,53,50,99,97,88,29.91,29.81,14,6,24,0.00
2013-3-30,55,52,50,54,52,49,99,97,84,29.81,29.53,17,9,35,0.36
2013-3-31,53,50,47,52,49,46,99,97,90,29.73,29.50,17,7,27,0.49
2013-4-1,56,50,47,49,47,43,99,90,69,29.77,29.57,17,6,30,0.55
2013-4-2,53,51,47,52,50,47,99,99,99,29.57,29.46,17,5,26,1.34
2013-4-3,57,50,45,49,47,44,99,89,62,29.81,29.59,8,3,14,0.02
2013-4-4,62,53,47,50,45,39,99,75,46,29.82,29.57,17,7,32,0.02
2013-4-5,58,52,49,53,50,44,99,95,58,29.83,29.49,21,6,33,0.13
2013-4-6,61,54,49,55,50,44,99,86,67,29.84,29.78,10,3,17,0.00
2013-4-7,65,57,48,50,45,38,81,66,53,29.80,29.68,13,5,21,0.00
2013-4-8,57,46,42,40,36,29,77,68,35,29.87,29.78,10,5,18,0.00
2013-4-9,58,53,49,52,49,44,99,89,62,29.96,29.86,11,5,18,0.00
2013-4-10,61,54,51,55,52,44,99,92,72,30.05,29.91,11,5,21,0.00
2013-4-11,62,55,50,52,48,44,99,78,53,30.08,30.02,10,5,17,0.00
2013-4-12,62,56,51,56,52,42,99,89,64,30.06,29.96,15,8,27,0.00
2013-4-13,67,59,52,56,50,44,99,75,45,30.29,30.06,10,4,15,0.00
2013-4-14,68,62,56,58,48,41,77,60,48,30.36,30.28,9,3,14,0.00
2013-4-15,69,65,59,53,48,38,76,54,42,30.31,30.18,10,3,17,0.00
2013-4-16,69,63,58,57,48,38,80,57,40,30.21,30.16,8,2,13,0.00
2013-4-17,64,61,59,53,49,39,78,65,40,30.24,30.19,6,3,11,0.00
2013-4-18,72,67,63,53,49,38,65,54,29,30.16,30.09,9,3,14,0.00
2013-4-19,70,65,60,64,55,42,86,71,49,30.10,30.00,9,3,15,0.00
2013-4-20,60,56,52,57,52,46,99,88,61,30.06,30.00,9,3,16,0.00
2013-4-21,58,54,48,51,44,38,99,71,50,30.07,29.98,11,4,52,0.11
2013-4-22,52,48,45,50,45,41,99,90,72,29.98,29.89,11,6,17,0.53
2013-4-23,61,54,48,51,48,45,99,81,56,30.22,30.05,8,4,12,0.02
2013-4-24,72,65,57,54,46,43,75,50,37,30.36,30.28,10,3,15,0.00
2013-4-25,76,70,62,54,47,39,66,44,33,30.33,30.23,10,4,17,0.00
2013-4-26,68,66,61,60,52,46,94,61,47,30.22,30.06,10,2,15,0.11
2013-4-27,60,57,55,60,55,53,99,93,79,30.01,29.81,15,8,34,0.06
2013-4-28,73,65,54,58,54,4,99,71,10,30.03,29.90,12,6,22,0.15
2013-4-29,80,73,69,55,50,42,50,44,34,30.09,30.02,14,8,24,0.00
2013-4-30,80,71,65,55,47,37,53,42,27,30.12,29.69,14,6,24,0.00
2013-5-1,78,71,62,58,47,39,87,45,30,30.13,30.08,12,5,20,0.17
2013-5-2,73,65,60,61,57,52,99,76,50,30.11,29.98,12,4,28,0.23
2013-5-3,77,68,59,61,53,48,82,61,46,30.03,29.97,10,4,16,0.00
2013-5-4,76,69,64,64,58,48,84,69,51,30.06,29.97,8,3,11,0.00
2013-5-5,68,63,59,62,57,46,99,81,45,30.07,30.00,9,4,16,0.08
2013-5-6,63,60,56,59,58,56,99,92,79,30.01,29.93,8,3,13,1.63
2013-5-7,62,58,55,61,57,54,99,97,81,30.08,30.01,8,3,14,0.42
2013-5-8,68,62,56,60,55,51,90,78,65,30.04,29.98,8,3,12,0.00
2013-5-9,70,64,44,61,58,37,99,81,69,30.05,29.99,105,3,105,0.00
2013-5-10,68,63,59,63,58,52,99,86,59,30.04,29.99,8,2,12,0.00
2013-5-11,64,60,58,61,59,57,99,94,80,30.01,29.92,13,5,17,0.00
2013-5-12,66,59,53,59,56,53,99,91,69,29.95,29.89,10,3,17,0.00
2013-5-13,69,60,53,56,50,38,99,76,34,30.00,29.93,14,6,24,0.00
2013-5-14,70,63,58,54,43,29,67,50,32,30.05,29.98,9,4,16,0.00
2013-5-15,66,60,56,60,51,38,99,73,43,29.93,29.75,14,6,25,0.02
2013-5-16,69,62,56,61,57,49,99,82,58,29.75,29.60,20,8,36,0.83
2013-5-17,62,59,54,60,56,50,99,89,66,29.97,29.62,15,6,28,0.32
2013-5-18,74,66,55,56,52,46,99,63,41,30.04,29.90,12,5,21,0.00
2013-5-19,68,61,57,60,53,45,99,76,51,30.11,29.88,13,5,21,0.00
2013-5-20,65,59,54,56,50,42,99,75,44,30.17,30.10,10,3,14,0.00
2013-5-21,67,59,54,57,49,39,99,71,44,30.14,29.87,10,3,16,0.25
2013-5-22,74,64,56,62,56,52,99,76,51,29.88,29.46,14,4,23,1.11
2013-5-23,60,56,54,58,56,54,99,98,86,29.75,29.50,11,4,18,1.21
2013-5-24,58,55,50,56,51,45,99,87,67,29.94,29.72,19,6,29,0.00
2013-5-25,58,53,49,51,46,42,92,80,57,29.94,29.86,19,7,32,0.04
2013-5-26,60,54,48,52,48,44,99,82,60,30.06,29.86,11,5,19,0.00
2013-5-27,62,54,51,53,50,37,99,87,42,30.06,30.01,12,4,19,0.00
2013-5-28,70,61,54,54,49,39,99,68,34,29.97,29.74,8,2,14,0.00
2013-5-29,61,57,53,60,53,46,99,86,60,29.83,29.76,12,4,17,0.02
2013-5-30,57,53,50,54,51,48,99,92,74,29.83,29.76,97,7,97,0.21
2013-5-31,59,54,50,56,52,49,99,95,72,29.82,29.75,16,6,24,0.23
2013-6-1,61,55,52,57,54,52,99,95,79,29.82,29.76,8,3,12,0.43
2013-6-2,67,63,55,61,57,53,96,82,66,29.95,29.86,10,4,14,0.00
2013-6-3,65,60,55,60,56,52,99,89,75,30.01,29.97,8,2,13,0.00
2013-6-4,69,61,57,62,57,52,99,88,63,30.05,29.97,9,2,15,0.04
2013-6-5,69,63,57,63,59,56,99,89,64,30.09,30.02,9,2,17,0.02
2013-6-7,77,72,66,62,57,54,73,59,49,30.08,30.05,10,3,15,0.00
2013-6-8,72,68,65,62,58,56,76,72,66,30.07,30.02,5,2,8,0.00
2013-6-9,71,67,62,67,57,44,94,70,42,30.05,29.94,14,5,22,0.00
2013-6-10,68,63,60,62,59,54,99,86,66,29.98,29.92,11,4,17,0.00
2013-6-11,72,65,58,60,58,56,99,81,62,30.02,29.94,10,4,17,0.00
2013-6-12,80,71,63,62,55,49,89,60,37,30.08,30.00,10,4,18,0.00
2013-6-13,83,73,66,57,50,45,52,44,31,30.10,30.05,9,4,17,0.00
2013-6-14,81,75,68,61,55,49,58,51,43,30.09,29.69,11,4,14,0.00
2013-6-15,78,71,68,65,56,52,64,59,55,29.75,29.71,8,2,13,0.00
2013-6-16,82,75,68,66,60,55,71,60,49,30.16,30.11,8,2,11,0.00
2013-6-17,85,78,72,69,60,50,63,54,42,30.14,30.08,8,2,11,0.00
2013-6-18,80,77,75,69,65,60,76,67,53,30.09,30.07,6,2,10,0.00
2013-6-19,88,82,76,66,60,54,59,48,38,30.13,30.08,9,2,14,0.00
2013-6-20,87,80,75,66,59,54,73,49,35,30.11,30.06,10,3,15,0.00
2013-6-21,82,76,71,68,61,54,87,61,40,30.11,30.07,11,3,16,0.00
2013-6-22,79,74,68,65,58,48,88,59,43,30.13,30.06,7,2,10,0.00
2013-6-23,78,72,65,67,64,58,99,80,53,30.12,30.03,9,3,14,0.00
2013-6-24,69,66,63,64,61,56,99,84,65,30.01,29.96,14,6,21,0.00
2013-6-25,76,66,57,61,57,50,99,74,43,30.07,30.00,12,5,19,0.00
2013-6-26,74,66,61,63,56,49,87,71,43,30.12,30.06,14,4,21,0.00
2013-6-27,73,66,59,58,55,51,94,68,49,30.14,30.09,12,3,17,0.00
2013-6-28,66,63,60,62,56,50,99,78,60,30.12,30.06,10,3,21,0.00
2013-6-29,74,66,56,59,53,48,99,67,42,30.07,30.01,13,4,19,0.00
2013-6-30,67,64,61,50,46,42,58,53,47,30.10,30.06,5,2,8,0.00
2013-7-1,76,71,66,60,49,36,64,47,31,30.18,30.12,9,3,15,0.00
2013-7-2,79,74,68,59,53,43,61,50,38,30.16,30.11,11,3,17,0.00
2013-7-3,70,70,68,50,49,48,52,47,46,30.13,30.08,4,2,7,0.00
2013-7-4,76,69,61,66,60,51,99,77,50,30.12,30.01,10,4,17,0.40
2013-7-5,86,76,66,65,59,54,99,59,36,30.15,30.09,11,4,15,0.00
2013-7-6,86,78,74,63,55,46,67,46,32,30.17,30.12,14,3,21,0.00
2013-7-7,83,75,70,66,61,56,85,64,44,30.17,30.09,10,3,18,0.13
2013-7-8,83,74,68,66,62,59,90,66,45,30.18,30.14,10,2,14,0.19
2013-7-9,71,71,71,61,60,60,71,70,69,30.17,30.16,2,2,4,0.00
2013-7-13,77,77,77,62,62,62,61,61,61,30.11,30.11,1,1,5,0.00
2013-7-17,84,77,72,72,63,56,91,64,50,30.16,30.11,9,3,14,0.00
2013-7-18,80,76,60,72,67,3,99,75,10,30.15,30.10,11,4,17,0.00
2013-7-19,80,73,70,72,66,61,99,78,58,30.15,30.07,11,2,17,0.02
2013-7-20,83,75,68,69,66,61,94,75,53,30.10,30.02,11,2,17,0.00
2013-7-21,74,72,71,67,64,62,81,76,72,30.06,30.03,3,1,4,0.00
2013-7-24,79,79,78,67,66,65,68,66,63,30.09,30.09,2,2,7,0.00
2013-7-25,84,78,72,73,67,56,93,71,47,30.14,30.10,9,3,14,0.00
2013-7-26,85,78,75,73,68,58,79,71,52,30.11,30.09,8,2,11,0.00
2013-7-27,90,83,76,69,65,46,67,55,27,30.07,30.02,10,3,14,0.00
2013-7-28,90,85,77,67,61,48,59,44,29,30.15,30.06,9,3,17,0.00
2013-7-29,104,81,78,80,60,58,58,50,45,30.16,30.14,4,1,6,0.00
2013-8-1,83,76,74,67,64,61,75,66,49,30.09,30.06,6,2,14,0.00
2013-8-2,87,80,73,70,62,56,77,55,42,30.15,30.07,11,3,18,0.00
2013-8-3,90,83,79,67,61,54,55,47,36,30.16,30.10,8,3,14,0.00
2013-8-4,95,87,81,64,60,48,55,41,24,30.17,30.10,99,5,99,0.00
2013-8-5,88,84,81,56,48,35,40,29,17,30.13,30.07,6,2,13,0.00
2013-8-6,92,87,81,71,58,23,60,39,10,30.10,30.04,10,3,15,0.00
2013-8-7,87,85,81,51,28,21,35,13,10,30.05,30.00,5,2,8,0.02
2013-8-8,92,86,82,53,49,45,37,29,22,30.05,30.02,7,2,10,0.00
2013-8-9,85,77,71,67,60,47,82,58,27,30.03,29.92,11,4,19,0.00
2013-8-10,86,77,71,66,62,58,72,61,41,30.00,29.89,8,3,14,0.00
2013-8-11,84,76,73,62,60,57,64,57,47,30.03,29.98,6,2,10,0.00
2013-8-12,84,78,73,69,61,53,74,57,40,30.08,29.64,10,3,16,0.00
2013-8-13,84,78,73,68,57,45,78,51,34,30.09,30.04,10,2,14,0.00
2013-8-14,84,78,73,68,60,50,81,55,42,30.05,29.63,11,3,17,0.00
2013-8-15,85,80,72,70,63,57,92,58,48,30.11,30.03,10,3,17,0.00
2013-8-16,84,79,75,72,64,55,75,61,47,30.12,30.07,8,2,15,0.00
2013-8-17,86,79,74,64,60,55,69,52,39,30.11,30.07,11,3,17,0.00
2013-8-18,85,78,72,68,60,53,84,54,39,30.16,30.09,10,2,15,0.00
2013-8-19,85,77,70,72,64,54,99,67,42,30.14,30.05,11,3,19,0.00
2013-8-20,78,72,65,71,64,57,99,78,55,30.07,29.99,15,3,20,0.43
2013-8-21,84,75,69,64,60,54,83,59,41,30.07,30.00,8,3,13,0.00
2013-8-22,82,76,71,68,62,54,76,63,48,30.07,30.02,9,3,14,0.00
2013-8-23,84,77,70,65,58,49,69,52,39,30.08,30.03,9,2,14,0.00
2013-8-24,81,74,70,72,65,58,99,73,55,30.08,29.98,12,3,18,0.00
2013-8-25,76,70,65,72,69,64,99,96,78,30.00,29.85,13,6,24,2.36
2013-8-26,77,71,66,71,68,14,99,91,10,29.97,29.91,11,4,17,0.02
2013-8-27,75,70,65,71,67,64,99,91,72,29.97,29.91,10,4,19,2.15
2013-8-28,74,70,66,70,66,63,99,88,70,30.07,29.92,8,3,12,0.02
2013-8-29,78,70,65,69,65,58,99,84,56,30.15,30.06,11,3,14,0.00
2013-8-30,78,72,68,67,62,54,95,72,54,30.14,30.05,8,2,14,0.00
2013-8-31,77,72,68,69,65,61,98,78,65,30.14,30.07,9,3,14,0.00
2013-9-1,80,73,68,65,61,55,88,68,44,30.15,30.08,9,3,14,0.00
2013-9-2,118,74,68,100,60,51,96,64,36,30.23,30.12,10,2,14,0.00
2013-9-3,80,74,69,70,64,58,98,71,49,30.27,30.21,9,3,13,0.00
2013-9-4,84,77,70,63,57,50,71,51,40,30.27,30.19,8,3,16,0.00
2013-9-5,83,76,72,68,58,50,76,54,39,30.19,30.03,12,4,19,0.00
2013-9-6,82,75,69,69,63,56,84,66,49,30.06,29.98,10,3,14,0.00
2013-9-7,83,75,70,70,64,61,97,71,52,30.18,30.05,10,2,14,0.00
2013-9-8,82,77,68,71,65,60,97,67,50,30.26,30.17,9,3,14,0.00
2013-9-9,77,71,67,74,68,60,99,92,71,30.22,30.15,11,4,18,0.25
2013-9-10,73,67,63,67,64,59,99,91,65,30.18,30.04,11,4,17,0.21
2013-11-11,70,54,51,56,46,44,85,76,60,29.95,29.50,0,0,0,0.00
2013-11-12,70,56,51,58,48,44,86,75,61,29.94,29.70,0,0,0,0.00
2013-11-13,68,64,59,59,54,48,77,70,64,30.00,29.91,0,0,0,0.00
2013-11-14,66,59,57,55,50,46,92,73,64,30.00,29.53,8,1,13,0.00
2013-11-15,57,54,49,55,53,49,99,98,91,30.03,29.62,10,4,21,0.85
2013-11-16,64,58,55,55,48,44,93,69,58,30.12,30.02,9,2,51,0.00
2013-11-17,64,58,54,54,50,44,98,75,61,30.18,29.73,11,5,20,0.00
2013-11-18,64,58,54,53,49,45,96,72,56,30.00,29.61,17,8,39,0.00
2013-11-19,59,54,49,55,50,45,99,87,72,29.81,29.44,20,8,36,3.08
2013-11-20,55,51,46,55,50,45,99,96,82,29.77,29.35,24,5,42,0.77
2013-11-21,53,47,45,46,42,39,99,84,68,29.77,29.54,15,5,26,0.64
2013-11-22,51,45,42,47,44,42,99,95,81,29.57,29.43,12,4,23,0.76
2013-11-23,48,42,41,48,42,41,99,99,99,29.60,29.44,14,5,23,3.12
2013-11-24,54,46,42,50,44,41,99,93,85,29.73,29.56,13,4,20,0.02
2013-11-25,54,43,33,44,35,23,88,73,60,30.00,29.72,15,4,25,0.11
2013-11-26,42,34,30,31,26,24,85,73,62,30.10,29.99,17,7,31,0.94
2013-11-27,33,32,31,27,26,24,80,78,74,30.08,30.00,10,6,18,0.00
2013-11-28,46,40,35,32,27,23,66,60,53,30.31,30.25,7,2,11,0.00
2013-11-29,56,48,43,42,38,34,79,68,55,30.27,30.12,8,2,11,0.00
2013-11-30,53,48,44,38,35,31,67,60,46,30.12,29.89,7,3,12,0.00
2013-12-1,52,49,47,39,37,34,69,63,53,29.89,29.75,8,4,15,0.00
2013-12-2,62,55,50,50,44,-3,86,68,10,30.18,29.78,13,5,23,0.00
2013-12-3,56,51,48,43,40,38,75,66,54,30.19,30.15,9,4,12,0.00
2013-12-4,56,50,45,46,43,38,94,78,66,30.31,30.22,8,2,12,0.15
2013-12-5,55,49,8,40,36,-37,79,62,10,30.24,30.17,5,2,100,0.00
2013-12-6,53,48,43,43,40,38,93,74,61,30.17,30.00,6,2,10,0.00
2013-12-7,57,47,44,44,39,36,85,76,58,30.22,30.05,8,3,12,0.00
2013-12-8,61,50,46,45,43,38,86,75,53,30.41,30.34,9,4,14,0.00
2013-12-9,61,52,49,49,45,42,85,77,62,30.47,30.41,8,3,11,0.00
2013-12-10,61,52,45,45,41,36,75,65,52,30.55,30.43,9,3,14,0.09
2013-12-11,50,48,47,48,41,36,94,77,59,30.56,30.53,6,3,9,0.00
2013-12-12,56,49,46,46,44,38,89,82,69,30.54,30.39,8,3,13,0.00
2013-12-13,53,48,45,44,40,35,91,74,62,30.39,30.30,8,3,13,0.00
2013-12-14,50,45,44,41,40,38,86,80,65,30.39,30.32,5,4,11,0.00
2013-12-15,95,51,38,47,44,30,91,78,10,30.48,30.42,49,2,49,0.02
2013-12-16,57,49,17,48,39,11,92,70,39,30.56,30.50,7,2,11,0.08
2013-12-17,59,50,45,42,33,23,71,52,36,30.53,30.43,7,2,11,0.00
2013-12-18,56,48,43,45,37,28,84,68,52,30.44,30.31,5,2,8,0.00
2013-12-19,54,48,43,48,42,39,97,82,65,30.32,30.21,11,5,21,0.00
2013-12-20,56,50,48,54,48,41,99,91,73,30.53,30.20,13,6,25,0.76
2013-12-21,61,54,50,56,52,48,99,93,80,30.61,30.52,4,1,8,0.00
2013-12-22,55,50,47,50,47,45,99,91,76,30.59,30.43,5,2,10,0.00
2013-12-23,56,49,44,47,43,40,99,81,62,30.43,30.29,7,3,13,0.00
2013-12-24,56,48,43,48,42,36,99,81,68,30.29,30.16,7,3,11,0.00
2013-12-25,54,49,46,50,46,43,99,90,81,30.16,29.70,21,10,37,0.34
2013-12-26,53,49,44,52,48,40,99,97,86,30.23,29.39,26,4,40,1.78
2013-12-27,52,46,17,46,43,-31,99,90,10,29.88,29.49,11,3,17,0.02
2013-12-28,57,49,44,49,44,40,99,86,65,30.03,29.87,8,4,14,0.00
2013-12-29,50,49,48,49,48,47,98,97,94,30.06,30.01,12,6,20,0.00
2013-12-30,53,47,43,53,46,30,99,95,60,30.14,30.06,10,3,18,0.57
2013-12-31,54,49,46,53,46,41,99,91,72,30.08,30.03,6,2,10,0.04
2014-1-1,52,47,44,46,42,40,87,83,79,30.08,30.02,4,1,6,0.00
2014-1-2,52,46,41,46,42,38,95,84,71,30.09,30.02,9,3,17,0.00